User: anonymous   Login
Location: Unspecified
(0.0000°N, 0.0000°E)
Time: 08:06:54
(UTC+00:00)
Language:

FALCON 9 R/B - Orbit

View from above orbital plane
View from above orbital plane
View from above satellite
View from above satellite

Ground track
Ground track

The orbit data is extracted from the following two-line orbital elements,

1 41590U 16038C   20332.11845972 -.00000045 +00000-0 +56377-4 0  9996
2 41590 025.4168 014.3687 8181990 315.6188 002.8619 01.18359173019198
Epoch (UTC): 27 November 2020 02:50:34
Eccentricity: 0.8181990
inclination: 25.4168°
perigee height: 485 km
apogee height: 62261 km
right ascension of ascending node: 14.3687°
argument of perigee: 315.6188°
revolutions per day: 1.18359173
mean anomaly at epoch: 2.8619°
orbit number at epoch: 1919

The dashed part of the orbit path shows where the satellite is in the earth's shadow,  

DLR